Regional Weather Roundup
Issued by NWS

Home | Current Version | Previous Version | Text Only | Print | Product List | Glossary On
Versions: 1 2 3 4 5 6 7 8 9 10 11 12 13 14 15 16 17 18 19 20 21 22 23 24 25 26 27 28 29 30 31 32 33 34 35 36 37 38 39 40 41 42 43 44 45 46 47 48 49 50
032
ASUS44 KJAN 021110
RWRMS

MISSISSIPPI HOURLY WEATHER ROUNDUP
NATIONAL WEATHER SERVICE JACKSON MS
600 AM CDT TUE SEP 02 2014

NOTE: "FAIR: INDICATES FEW OR NO CLOUDS BELOW 12,000 FEET WITH NO
SIGNIFICANT WEATHER AND/OR OBSTRUCTIONS TO VISIBILITY.

MSZ001>002-007>008-010>013-018>021-025>028-034>036-021200-
NORTHWEST MISSISSIPPI

CITY           SKY/WX    TMP DP  RH WIND       PRES   REMARKS
CLARKSDALE     CLOUDY    73  73 100 CALM      30.04R
CLEVELAND      FAIR      74  74 100 S3        30.01R
GREENWOOD      CLEAR     74  72  93 S3        30.02R
GREENVILLE     CLEAR     74  73  97 S6        30.00R
GRENADA        FAIR      73  72  94 CALM      30.04R
OLIVE BRANCH   CLEAR     73 N/A N/A S3        30.04R
OXFORD         FAIR      73  72  94 CALM      30.07R
TUNICA         PTSUNNY   72  72 100 CALM      30.03R
$$

MSZ003>006-009-014>017-022>024-029>033-037>039-021200-
NORTHEAST MISSISSIPPI

CITY           SKY/WX    TMP DP  RH WIND       PRES   REMARKS
BELMONT        FAIR      73  71  93 CALM      30.06R
COLUMBUS AFB   PTCLDY    73  73 100 SE5       30.05R
CORINTH        FAIR      72  70  94 CALM      30.05R
GOLDN TRIANGLE PTCLDY    73  70  88 S5        30.05S
STARKVILLE     FAIR      70  70 100 CALM      30.04S
TUPELO         PTCLDY    74  71  91 SW3       30.04R
$$

MSZ040-058-021200-
CENTRAL MISSISSIPPI

CITY           SKY/WX    TMP DP  RH WIND       PRES   REMARKS
JACKSON INTL   MOCLDY    75  74  96 S5        30.04R
JACKSON HAWKNS CLOUDY    76  73  91 S6        30.04R
MERIDIAN KEY   CLOUDY    75  72  90 CALM      30.06R
MERIDIAN NAS   CLOUDY    74  72  93 CALM      30.06R
RAYMOND        CLOUDY    75  70  83 SE3       30.03S HAZE
VICKSBURG      MOCLDY    76  74  93 S6        30.00F
$$

MSZ059>079-021200-
SOUTH MISSISSIPPI

CITY           SKY/WX    TMP DP  RH WIND       PRES   REMARKS
BROOKHAVEN     CLOUDY    75  75 100 CALM      30.06R FOG
HATTIESBURG    PTCLDY    74  72  93 CALM      30.05R
MCCOMB         MOCLDY    75  73  93 CALM      30.05R
NATCHEZ        MOCLDY    75  73  94 SE3       30.03R
PINE BELT      PTCLDY    73  70  88 CALM      30.07R
$$

MSZ080>082-021200-
COASTAL MISSISSIPPI

CITY           SKY/WX    TMP DP  RH WIND       PRES   REMARKS
BILOXI         MOCLDY    81  77  89 N3        30.04R
PASCAGOULA     FOG       72  72 100 CALM      30.04S VSB 1/2
GULFPORT       CLEAR     77  75  93 CALM      30.03R
$$



USA.gov is the U.S. government's official web portal to all federal, state and local government web resources and services.